{"data":{"norad_id":59146,"epoch":"2026-05-24T23:41:32.084160Z","epoch_age_seconds":73189,"freshness":"FRESH","line1":"1 59146U 24043BA  26144.98717690  .00032073  00000+0  41939-3 0  9995","line2":"2 59146  97.5360 295.2896 0003776 250.6474 109.4374 15.58574162124424","mean_motion":15.58574162,"eccentricity":0.0003776,"inclination_deg":97.536,"raan_deg":295.2896,"arg_perigee_deg":250.6474,"mean_anomaly_deg":109.4374,"bstar":0.00041939,"rev_number":12442,"period_min":92.392138603925,"perigee_km":389.22651971766,"apogee_km":394.33916318192,"semimajor_km":6769.9198414498,"source":"CELESTRAK","updated_at":"2026-05-25T13:38:13.535044Z"}}